| time (UTC) | temp F | wind direction | speed knots | gust knots | rain 1hr in | rain 24hr in | rain mn in | humidity % | barometer mb |
| 20260904163018 | 70 | 68 | 1.7 | 5.2 | 0.00 | 0.00 | 0.00 | 70 | 1013.4 |
| 20260904160018 | 66 | 90 | 3.5 | 7.8 | 0.00 | 0.00 | 0.00 | 76 | 1012.9 |
| 20260904153018 | 64 | 90 | 2.6 | 6.1 | 0.00 | 0.00 | 0.00 | 81 | 1012.9 |
| 20260904150018 | 62 | 0.0 | 4.3 | 0.00 | 0.00 | 0.00 | 89 | 1012.7 | |
| 20260904143018 | 61 | 68 | 0.9 | 6.1 | 0.00 | 0.00 | 0.00 | 90 | 1012.7 |
| 20260904140018 | 61 | 68 | 0.9 | 3.5 | 0.00 | 0.00 | 0.00 | 90 | 1012.5 |
| 20260904133018 | 61 | 68 | 1.7 | 5.2 | 0.00 | 0.00 | 0.00 | 90 | 1012.4 |
| 20260904130018 | 61 | 68 | 0.9 | 4.3 | 0.00 | 0.00 | 0.00 | 90 | 1012.2 |
| 20260904123018 | 62 | 45 | 0.9 | 3.5 | 0.00 | 0.00 | 0.00 | 90 | 1012.2 |
| 20260904120018 | 62 | 0.0 | 3.5 | 0.00 | 0.00 | 0.00 | 90 | 1012.0 | |
| 20260904113018 | 62 | 0.0 | 0.0 | 0.00 | 0.00 | 0.00 | 91 | 1012.4 | |
| 20260904110018 | 62 | 90 | 0.9 | 2.6 | 0.00 | 0.00 | 0.00 | 91 | 1012.3 |
| 20260904103017 | 62 | 0.0 | 2.6 | 0.00 | 0.00 | 0.00 | 92 | 1012.4 | |
| 20260904100017 | 62 | 0.0 | 3.5 | 0.00 | 0.00 | 0.00 | 92 | 1012.2 | |
| 20260904093017 | 62 | 0.0 | 2.6 | 0.00 | 0.00 | 0.00 | 91 | 1012.4 | |
| 20260904090039 | 62 | 0.0 | 2.6 | 0.00 | 0.00 | 0.00 | 91 | 1012.2 | |
| 20260904083019 | 61 | 158 | 0.9 | 3.5 | 0.00 | 0.00 | 0.00 | 91 | 1012.5 |
| 20260904080019 | 62 | 135 | 0.9 | 3.5 | 0.00 | 0.00 | 0.00 | 91 | 1012.7 |
| 20260904073020 | 62 | 0.0 | 2.6 | 0.00 | 0.00 | 0.00 | 90 | 1012.9 | |
| 20260904070019 | 62 | 0.0 | 0.0 | 0.00 | 0.00 | 0.00 | 90 | 1012.8 | |
| 20260904063039 | 62 | 0.0 | 0.0 | 0.00 | 0.00 | 0.00 | 89 | 1012.6 | |
| 20260904060019 | 62 | 0.0 | 0.0 | 0.00 | 0.00 | 0.00 | 89 | 1012.5 | |
| 20260904053019 | 63 | 0.0 | 1.7 | 0.00 | 0.00 | 0.00 | 89 | 1012.3 | |
| 20260904050019 | 63 | 0.0 | 0.0 | 0.00 | 0.00 | 0.00 | 88 | 1012.4 | |
| 20260904043019 | 64 | 248 | 0.9 | 2.6 | 0.00 | 0.00 | 0.00 | 87 | 1012.1 |
| 20260904040039 | 64 | 248 | 0.9 | 4.3 | 0.00 | 0.00 | 0.00 | 86 | 1012.0 |
| 20260904033019 | 65 | 248 | 3.5 | 6.1 | 0.00 | 0.00 | 0.00 | 84 | 1011.7 |
| 20260904030019 | 66 | 248 | 3.5 | 7.8 | 0.00 | 0.00 | 0.00 | 82 | 1011.5 |
| 20260904023019 | 67 | 248 | 4.3 | 7.8 | 0.00 | 0.00 | 0.00 | 80 | 1011.5 |
| 20260904020019 | 69 | 248 | 5.2 | 8.7 | 0.00 | 0.00 | 0.00 | 76 | 1011.4 |
| 20260904013019 | 71 | 248 | 7.0 | 12.2 | 0.00 | 0.00 | 0.00 | 74 | 1011.5 |
| 20260904010019 | 72 | 248 | 7.0 | 14.8 | 0.00 | 0.00 | 0.00 | 70 | 1011.6 |
| 20260904003018 | 74 | 248 | 7.8 | 13.9 | 0.00 | 0.00 | 0.00 | 67 | 1011.6 |
| 20260904000018 | 75 | 248 | 8.7 | 14.8 | 0.00 | 0.00 | 0.00 | 61 | 1011.7 |
| 20260903233018 | 75 | 248 | 8.7 | 15.6 | 0.00 | 0.00 | 0.00 | 59 | 1011.7 |
| 20260903230038 | 77 | 248 | 8.7 | 15.6 | 0.00 | 0.00 | 0.00 | 56 | 1012.0 |
| 20260903223018 | 77 | 248 | 8.7 | 16.5 | 0.00 | 0.00 | 0.00 | 59 | 1012.3 |
| 20260903220018 | 77 | 248 | 10.4 | 18.2 | 0.00 | 0.00 | 0.00 | 58 | 1012.5 |
| 20260903213018 | 77 | 248 | 10.4 | 16.5 | 0.00 | 0.00 | 0.00 | 59 | 1012.5 |
| 20260903210018 | 78 | 248 | 9.6 | 17.4 | 0.00 | 0.00 | 0.00 | 59 | 1012.5 |
| 20260903203018 | 78 | 248 | 9.6 | 18.2 | 0.00 | 0.00 | 0.00 | 57 | 1012.5 |
| 20260903200018 | 80 | 248 | 8.7 | 15.6 | 0.00 | 0.00 | 0.00 | 53 | 1012.8 |
| 20260903193018 | 81 | 248 | 7.0 | 15.6 | 0.00 | 0.00 | 0.00 | 50 | 1013.0 |
| 20260903190038 | 80 | 270 | 6.1 | 11.3 | 0.00 | 0.00 | 0.00 | 41 | 1013.4 |
| 20260903183017 | 80 | 248 | 4.3 | 10.4 | 0.00 | 0.00 | 0.00 | 41 | 1014.1 |
| 20260903180019 | 77 | 270 | 5.2 | 11.3 | 0.00 | 0.00 | 0.00 | 48 | 1014.2 |
| 20260903173020 | 75 | 270 | 3.5 | 9.6 | 0.00 | 0.00 | 0.00 | 56 | 1014.3 |
| 20260903170020 | 73 | 270 | 3.5 | 7.8 | 0.00 | 0.00 | 0.00 | 56 | 1014.3 |